sat.trackr.live / text

‹ back to catalog

STARLINK-36532

NORAD 67628 · 2026-020M

PAYLOAD ACTIVE UNKNOWN

§ Identity

Operator
Country
US
Launch date
2026-01-30
Launch site
AFETR
Launch vehicle
Mass (kg)
RCS (m²)

Purposes: comms

External: N2YO · Heavens-Above · Gunter

§ Orbital elements

Epoch: 2026-09-19T00:35:13.312896Z

Period
94.27 min
Inclination
43.0020°
Eccentricity
0.0000933
Mean motion
15.27596909 rev/d
Perigee alt
482.4 km
Apogee alt
483.6 km
Semi-major
6,861.1 km
B*
4.6619e-4
RAAN
127.7460°
Arg perigee
317.8681°
Mean anomaly
42.2099°
Rev number
3,568

§ Raw data

STARLINK-365321 67628U 26020M   26262.02445964  .00012595  00000+0  46619-3 0  99912 67628  43.0020 127.7460 0000933 317.8681  42.2099 15.27596909 35687

JSON: /api/v1/satellites/67628 · /tle

For live sub-satellite position, see the globe view (requires WebGL).

§ Visibility from observer

Set your observer location to see the next 7 days of passes ≥ 10°. The values pass through the URL so the page stays shareable.

No JS? Fill the form by hand. The geolocation button needs JavaScript.